Monroe, WI

1:16 AM CST on December 18, 2017 (GMT -0600)
Monroe Municipal

Weather History for KEFT - August, 2014

Change the Weather History Date:

Wednesday, August 20, 2014

  Actual Average Record
Temperature  
Mean Temperature 73 °F -  
Max Temperature 82 °F 83 °F 95 °F (2003)
Min Temperature 64 °F 54 °F 17 °F (1998)
Cooling Degree Days 8    
Growing Degree Days 23 (Base 50)    
Moisture  
Dew Point 65 °F    
Average Humidity 76    
Maximum Humidity 94    
Minimum Humidity 54    
Precipitation  
Precipitation 0.00 in - - ()
Sea Level Pressure  
Sea Level Pressure 29.88 in    
Wind  
Wind Speed 7 mph (WSW)    
Max Wind Speed 15 mph    
Max Gust Speed 24 mph    
Visibility 10 miles    
Events Rain    
Averages and records for this station are not official NWS values.
T = Trace of Precipitation, MM = Missing Value Source: NWS Daily Summary

Daily Weather History Graph

Daily Weather History Graph

Search for Another Location

Airport or City:

Trip Planner

Search our weather history database for the weather conditions in past years. The results will help you decide how hot, cold, wet, or windy it might be!

Date:

Astronomy

Aug. 20, 2014 Rise Set
Actual Time 6:10 AM CDT 7:52 PM CDT
Civil Twilight 5:40 AM CDT 8:22 PM CDT
Nautical Twilight 5:04 AM CDT 8:58 PM CDT
Astronomical Twilight 4:24 AM CDT 9:37 PM CDT
Moon 1:47 AM CDT (8/20) 4:39 PM CDT (8/20)
Length of Visible Light 14h 41m
Length of Day
13h 41m
Waning Crescent, 20% of the Moon is Illuminated
Aug 20
Waning Crescent
Aug 25
New
Sep 2
First Quarter
Sep 8
Full
Sep 15
Last Quarter

Hourly Weather History & Observations

Time (CDT) Temp. Heat Index Dew Point Humidity Pressure Visibility Wind Dir Wind Speed Gust Speed Precip Events Conditions
12:35 AM 68.0 °F - 62.6 °F 83% 29.81 in 10.0 mi West 9.2 mph - N/A   Clear
12:55 AM 68.0 °F - 62.6 °F 83% 29.81 in 10.0 mi West 8.1 mph - N/A   Clear
1:15 AM 68.0 °F - 62.6 °F 83% 29.81 in 10.0 mi West 8.1 mph - N/A   Clear
1:35 AM 66.2 °F - 62.6 °F 88% 29.81 in 10.0 mi West 8.1 mph - N/A   Clear
1:55 AM 68.0 °F - 62.6 °F 83% 29.81 in 10.0 mi West 8.1 mph - N/A   Clear
2:15 AM 68.0 °F - 62.6 °F 83% 29.81 in 10.0 mi WNW 8.1 mph - N/A   Clear
2:35 AM 68.0 °F - 62.6 °F 83% 29.82 in 10.0 mi West 6.9 mph - N/A   Scattered Clouds
2:55 AM 68.0 °F - 62.6 °F 83% 29.82 in 10.0 mi West 6.9 mph - N/A   Overcast
3:15 AM 66.2 °F - 62.6 °F 88% 29.83 in 10.0 mi WSW 5.8 mph - N/A   Overcast
3:35 AM 66.2 °F - 62.6 °F 88% 29.83 in 10.0 mi West 8.1 mph - N/A   Scattered Clouds
3:55 AM 66.2 °F - 62.6 °F 88% 29.83 in 10.0 mi WSW 11.5 mph - N/A   Scattered Clouds
4:15 AM 66.2 °F - 62.6 °F 88% 29.83 in 10.0 mi West 11.5 mph - N/A Rain Rain
4:35 AM 64.4 °F - 62.6 °F 94% 29.83 in 10.0 mi WSW 10.4 mph - N/A   Mostly Cloudy
4:55 AM 64.4 °F - 62.6 °F 94% 29.83 in 10.0 mi West 8.1 mph - N/A   Scattered Clouds
5:15 AM 64.4 °F - 62.6 °F 94% 29.82 in 10.0 mi WNW 6.9 mph - N/A   Scattered Clouds
5:35 AM 66.2 °F - 62.6 °F 88% 29.82 in 10.0 mi West 5.8 mph - N/A   Clear
5:55 AM 64.4 °F - 62.6 °F 94% 29.83 in 10.0 mi West 4.6 mph - N/A   Mostly Cloudy
6:15 AM 64.4 °F - 62.6 °F 94% 29.84 in 10.0 mi West 4.6 mph - N/A   Mostly Cloudy
6:35 AM 64.4 °F - 62.6 °F 94% 29.84 in 10.0 mi WSW 5.8 mph - N/A   Scattered Clouds
6:50 AM 64.4 °F - 62.6 °F 94% 29.84 in 7.0 mi WSW 4.6 mph - N/A   Clear
7:15 AM 64.4 °F - 62.6 °F 94% 29.86 in 7.0 mi SW 4.6 mph - N/A   Clear
7:35 AM 68.0 °F - 62.6 °F 83% 29.86 in 10.0 mi West 5.8 mph - N/A   Clear
7:55 AM 68.0 °F - 64.4 °F 88% 29.86 in 10.0 mi Calm Calm - N/A   Clear
8:15 AM 69.8 °F - 64.4 °F 83% 29.87 in 10.0 mi Calm Calm - N/A   Clear
8:35 AM 71.6 °F - 64.4 °F 78% 29.88 in 10.0 mi Calm Calm - N/A   Clear
8:55 AM 71.6 °F - 66.2 °F 83% 29.89 in 10.0 mi Calm Calm - N/A   Clear
9:15 AM 73.4 °F - 64.4 °F 73% 29.89 in 10.0 mi WSW 3.5 mph - N/A   Clear
9:30 AM 73.4 °F - 64.4 °F 73% 29.89 in 10.0 mi SW 5.8 mph - N/A   Clear
9:55 AM 75.2 °F - 64.4 °F 69% 29.89 in 10.0 mi SSW 4.6 mph - N/A   Clear
10:15 AM 77.0 °F - 64.4 °F 65% 29.90 in 10.0 mi SW 4.6 mph - N/A   Clear
10:35 AM 77.0 °F - 64.4 °F 65% 29.90 in 10.0 mi WSW 6.9 mph - N/A   Clear
10:55 AM 78.8 °F - 64.4 °F 61% 29.90 in 10.0 mi WSW 6.9 mph - N/A   Clear
11:15 AM 78.8 °F - 66.2 °F 65% 29.91 in 10.0 mi SW 5.8 mph - N/A   Clear
11:30 AM 78.8 °F - 68.0 °F 69% 29.91 in 10.0 mi SW 10.4 mph - N/A   Clear
11:55 AM 78.8 °F - 68.0 °F 69% 29.92 in 10.0 mi SW 10.4 mph 16.1 mph N/A   Scattered Clouds
12:15 PM 78.8 °F - 66.2 °F 65% 29.92 in 10.0 mi West 10.4 mph - N/A   Mostly Cloudy
12:35 PM 80.6 °F 82.7 °F 66.2 °F 61% 29.91 in 10.0 mi West 8.1 mph - N/A   Scattered Clouds
12:55 PM 80.6 °F 82.7 °F 66.2 °F 61% 29.90 in 10.0 mi West 10.4 mph - N/A   Mostly Cloudy
1:15 PM 80.6 °F 82.7 °F 66.2 °F 61% 29.90 in 10.0 mi WSW 13.8 mph - N/A   Scattered Clouds
1:35 PM 82.4 °F 84.6 °F 66.2 °F 58% 29.89 in 10.0 mi SW 11.5 mph 18.4 mph N/A   Scattered Clouds
1:55 PM 82.4 °F 84.6 °F 66.2 °F 58% 29.89 in 10.0 mi SW 13.8 mph - N/A   Mostly Cloudy
2:10 PM 82.4 °F 84.6 °F 66.2 °F 58% 29.89 in 10.0 mi SW 11.5 mph - N/A   Mostly Cloudy
2:35 PM 80.6 °F 82.3 °F 64.4 °F 58% 29.89 in 10.0 mi West 9.2 mph - N/A   Scattered Clouds
2:55 PM 82.4 °F 83.9 °F 64.4 °F 54% 29.88 in 10.0 mi SW 6.9 mph - N/A   Scattered Clouds
3:15 PM 82.4 °F 83.9 °F 64.4 °F 54% 29.87 in 10.0 mi SSW 4.6 mph - N/A   Scattered Clouds
3:55 PM 82.4 °F 83.9 °F 64.4 °F 54% 29.87 in 10.0 mi South 6.9 mph - N/A   Mostly Cloudy
4:15 PM 82.4 °F 83.9 °F 64.4 °F 54% 29.88 in 10.0 mi SSW 5.8 mph - N/A   Scattered Clouds
4:35 PM 82.4 °F 83.9 °F 64.4 °F 54% 29.89 in 10.0 mi SSW 9.2 mph - N/A   Scattered Clouds
4:50 PM 80.6 °F 82.3 °F 64.4 °F 58% 29.90 in 10.0 mi SW 10.4 mph - N/A   Mostly Cloudy
5:15 PM 82.4 °F 83.9 °F 64.4 °F 54% 29.90 in 10.0 mi SW 10.4 mph - N/A   Mostly Cloudy
5:35 PM 80.6 °F 82.3 °F 64.4 °F 58% 29.90 in 10.0 mi SW 9.2 mph - N/A   Scattered Clouds
5:55 PM 80.6 °F 82.3 °F 64.4 °F 58% 29.90 in 10.0 mi WSW 8.1 mph - N/A   Clear
6:15 PM 80.6 °F 82.7 °F 66.2 °F 61% 29.89 in 10.0 mi SSW 4.6 mph - N/A   Clear
6:35 PM 80.6 °F 82.7 °F 66.2 °F 61% 29.89 in 10.0 mi Calm Calm - N/A   Scattered Clouds
6:55 PM 78.8 °F - 68.0 °F 69% 29.90 in 10.0 mi SW 8.1 mph - N/A   Scattered Clouds
7:15 PM 78.8 °F - 68.0 °F 69% 29.90 in 10.0 mi SW 9.2 mph - N/A   Scattered Clouds
7:35 PM 78.8 °F - 68.0 °F 69% 29.91 in 10.0 mi SW 9.2 mph - N/A   Scattered Clouds
7:55 PM 77.0 °F - 68.0 °F 74% 29.92 in 10.0 mi SW 15.0 mph 24.2 mph N/A   Mostly Cloudy
8:15 PM 75.2 °F - 68.0 °F 78% 29.91 in 10.0 mi WSW 12.7 mph - N/A   Mostly Cloudy
8:35 PM 73.4 °F - 68.0 °F 83% 29.91 in 10.0 mi SW 9.2 mph - N/A   Clear
8:55 PM 73.4 °F - 68.0 °F 83% 29.91 in 10.0 mi WSW 6.9 mph - N/A   Clear
9:15 PM 71.6 °F - 68.0 °F 88% 29.93 in 10.0 mi WSW 3.5 mph - N/A   Clear
9:35 PM 71.6 °F - 68.0 °F 88% 29.93 in 10.0 mi WSW 9.2 mph - N/A   Clear
9:55 PM 71.6 °F - 68.0 °F 88% 29.93 in 10.0 mi West 6.9 mph - N/A   Clear
10:10 PM 71.6 °F - 68.0 °F 88% 29.94 in 10.0 mi WSW 6.9 mph - N/A   Clear
10:35 PM 71.6 °F - 68.0 °F 88% 29.94 in 10.0 mi WSW 4.6 mph - N/A   Clear
10:50 PM 69.8 °F - 66.2 °F 88% 29.95 in 10.0 mi SSW 4.6 mph - N/A   Clear
11:15 PM 69.8 °F - 66.2 °F 88% 29.95 in 10.0 mi South 3.5 mph - N/A   Clear
11:35 PM 69.8 °F - 66.2 °F 88% 29.95 in 10.0 mi SSW 3.5 mph - N/A   Clear
11:55 PM 68.0 °F - 64.4 °F 88% 29.95 in 10.0 mi South 4.6 mph - N/A   Clear